1273104026597,0.000141202
1273104086597,0.000140921
1273104146597,0.000140064
1273104206597,0.000141201
1273104266597,0.000140937
1273104326597,0.000141656
1273104386597,0.000142165
1273104446597,0.000141768
1273104506597,0.000140844
1273104566597,0.000141569
1273104626597,0.000142599
1273104686597,0.000142463
1273104746597,0.000145949
1273104806597,0.000144977
1273104866597,0.000141840
1273104926597,0.000141949
1273104986597,0.000141495
1273105046597,0.000141434
1273105106597,0.000141292
1273105166597,0.000142162
1273105226597,0.000141266
1273105286597,0.000142251
1273105346597,0.000141047
1273105406597,0.000140986
1273105466597,0.000141151
1273105526597,0.000141652
1273105586597,0.000142428
1273105646597,0.000140876
1273105706597,0.000140805
1273105766597,0.000139912
1273105826597,0.000141178
1273105886597,0.000141140
1273105946597,0.000140742
1273106006597,0.000139888
1273106066597,0.000140146
1273106126597,0.000140419
1273106186597,0.000140638
1273106246597,0.000141016
1273106306597,0.000141400
1273106366597,0.000141540
1273106426597,0.000141819
1273106486597,0.000140916
1273106546597,0.000141483
1273106606597,0.000140800
1273106666597,0.000141136
1273106726597,0.000141433
1273106786597,0.000141061
1273106846597,0.000140619
1273106906597,0.000141076
1273106966597,0.000140218
1273107026597,0.000140991
1273107086597,0.000143100
1273107146597,0.000140471
1273107206597,0.000141005
1273107266597,0.000141336
1273107326597,0.000139646
1273107386597,0.000140650
1273107446597,0.000140984
1273107506597,0.000140960
1273107566597,0.000141529
1273107626606,0.000142589
1273107686606,0.000141920
1273107746606,0.000142304
1273107806606,0.000141061
1273107866606,0.000141130
1273107926606,0.000141014
1273107986606,0.000141355
1273108046606,0.000141884
1273108106606,0.000141204
1273108166606,0.000140706
1273108226606,0.000141725
1273108286606,0.000141727
1273108346606,0.000142331
1273108406606,0.000140912
1273108466606,0.000142066
1273108526606,0.000141259
1273108586606,0.000142262
1273108646606,0.000140852
1273108706606,0.000140051
1273108766606,0.000141875
1273108826606,0.000141536
1273108886606,0.000141333
1273108946606,0.000140427
1273109006606,0.000140866
1273109066606,0.000142236
1273109126606,0.000140251
1273109186606,0.000141233
1273109246606,0.000141618
1273109306606,0.000142655
1273109366606,0.000141077
1273109426606,0.000141880
1273109486606,0.000141107
1273109546606,0.000142452
1273109606606,0.000141202
1273109666606,0.000142106
1273109726606,0.000142490
1273109786606,0.000143016
1273109846606,0.000141988
1273109906606,0.000141113
1273109966606,0.000142778
1273110026606,0.000142246
1273110086606,0.000141739
1273110146606,0.000140526
1273110206606,0.000142458
1273110266606,0.000140272
1273110326606,0.000141521
1273110386606,0.000141250
1273110446606,0.000142263
1273110506606,0.000141209
1273110566606,0.000141694
1273110626606,0.000141904
1273110686606,0.000141061
1273110746606,0.000141604
1273110806606,0.000142360
1273110866606,0.000141505
1273110926606,0.000140981
1273110986606,0.000140500
1273111046606,0.000142039
1273111106606,0.000141155
1273111166606,0.000140519
1273111226616,0.000142006
1273111286616,0.000140358
1273111346616,0.000141299
1273111406616,0.000140583
1273111466616,0.000142172
1273111526616,0.000141390
1273111586616,0.000142966
1273111646616,0.000141388
1273111706616,0.000140149
1273111766616,0.000141539
1273111826616,0.000142464
1273111886616,0.000142327
1273111946616,0.000141010
1273112006616,0.000141361
1273112066616,0.000141532
1273112126616,0.000141377
1273112186616,0.000140720
1273112246616,0.000141820
1273112306616,0.000140353
1273112366616,0.000142156
1273112426616,0.000142182
1273112486616,0.000141413
1273112546616,0.000140889
1273112606616,0.000140079
1273112666616,0.000141269
1273112726616,0.000141894
1273112786616,0.000140241
1273112846616,0.000141660
1273112906616,0.000140965
1273112966616,0.000140568
1273113026616,0.000141777
1273113086616,0.000139684
1273113146616,0.000141337
1273113206616,0.000141168
1273113266616,0.000141362
1273113326616,0.000140542
1273113386616,0.000140620
1273113446616,0.000141071
1273113506616,0.000141377
1273113566616,0.000140880
1273113626616,0.000140777
1273113686616,0.000141150
1273113746616,0.000141670
1273113806616,0.000141367
1273113866616,0.000141524
1273113926616,0.000141249
1273113986616,0.000139612
1273114046616,0.000142026
1273114106616,0.000141272
1273114166616,0.000140271
1273114226616,0.000140963
1273114286616,0.000140624
1273114346616,0.000140250
1273114406616,0.000140585
1273114466616,0.000140554
1273114526616,0.000140206
1273114586616,0.000140247
1273114646616,0.000139634
1273114706616,0.000140109
1273114766616,0.000141692
1273114826625,0.000140445
1273114886625,0.000141002
1273114946625,0.000139910
1273115006625,0.000140546
1273115066625,0.000140961
1273115126625,0.000140760
1273115186625,0.000140736
1273115246625,0.000141360
1273115306625,0.000142327
1273115366625,0.000140341
1273115426625,0.000140348
1273115486625,0.000140448
1273115546625,0.000141764
1273115606625,0.000140046
1273115666625,0.000140391
1273115726625,0.000141954
1273115786625,0.000141070
1273115846625,0.000140927
1273115906625,0.000140631
1273115966625,0.000141282
1273116026625,0.000140201
1273116086625,0.000141769
1273116146625,0.000141094
1273116206625,0.000140348
1273116266625,0.000140938
1273116326625,0.000142024
1273116386625,0.000139034
1273116446625,0.000139906
1273116506625,0.000141599
1273116566625,0.000140797
1273116626625,0.000140780
1273116686625,0.000140231
1273116746625,0.000138895
1273116806625,0.000141445
1273116866625,0.000139793
1273116926625,0.000140690
1273116986625,0.000140620
1273117046625,0.000140593
1273117106625,0.000140439
1273117166625,0.000140681
1273117226625,0.000140783
1273117286625,0.000141847
1273117346625,0.000141942
1273117406625,0.000140861
1273117466625,0.000141705
1273117526625,0.000141220
1273117586625,0.000142139
1273117646625,0.000140696
1273117706625,0.000139967
1273117766625,0.000140683
1273117826625,0.000142219
1273117886625,0.000140825
1273117946625,0.000140689
1273118006625,0.000141477
1273118066625,0.000141396
1273118126625,0.000141660
1273118186625,0.000141661
1273118246625,0.000142266
1273118306625,0.000140850
1273118366625,0.000139624
1273118426634,0.000140524
1273118486634,0.000141177
1273118546634,0.000140087
1273118606634,0.000141289
1273118666634,0.000141475
1273118726634,0.000141378
1273118786634,0.000139769
1273118846634,0.000140716
1273118906634,0.000140587
1273118966634,0.000140158
1273119026634,0.000140543
1273119086634,0.000141661
1273119146634,0.000140397
1273119206634,0.000139412
1273119266634,0.000139573
1273119326634,0.000139102
1273119386634,0.000141758
1273119446634,0.000139467
1273119506634,0.000139750
1273119566634,0.000139835
1273119626634,0.000140648
1273119686634,0.000140930
1273119746634,0.000139565
1273119806634,0.000140834
1273119866634,0.000139630
1273119926634,0.000139074
1273119986634,0.000140865
1273120046634,0.000140365
1273120106634,0.000139097
1273120166634,0.000139263
1273120226634,0.000139970
1273120286634,0.000141579
1273120346634,0.000139673
1273120406634,0.000138606
1273120466634,0.000140154
1273120526634,0.000140000
1273120586634,0.000139344
1273120646634,0.000141448
1273120706634,0.000141118
1273120766634,0.000139896
1273120826634,0.000139728
1273120886634,0.000140205
1273120946634,0.000140009
1273121006634,0.000139474
1273121066634,0.000140977
1273121126634,0.000140422
1273121186634,0.000139368
1273121246634,0.000139598
1273121306634,0.000140004
1273121366634,0.000139932
1273121426634,0.000140773
1273121486634,0.000139237
1273121546634,0.000139408
1273121606634,0.000140015
1273121666634,0.000139714
1273121726634,0.000140282
1273121786634,0.000139758
1273121846634,0.000138994
1273121906634,0.000140074
1273121966634,0.000139666
1273122026644,0.000140790
1273122086644,0.000140767
1273122146644,0.000139547
1273122206644,0.000140375
1273122266644,0.000139680
1273122326644,0.000139656
1273122386644,0.000139637
1273122446644,0.000139751
1273122506644,0.000139974
1273122566644,0.000139655
1273122626644,0.000139507
1273122686644,0.000138979
1273122746644,0.000139151
1273122806644,0.000139000
1273122866644,0.000139171
1273122926644,0.000138678
1273122986644,0.000139556
1273123046644,0.000138648
1273123106644,0.000137882
1273123166644,0.000139058
1273123226644,0.000139281
1273123286644,0.000138779
1273123346644,0.000138211
1273123406644,0.000138827
1273123466644,0.000138192
1273123526644,0.000138763
1273123586644,0.000139074
1273123646644,0.000139579
1273123706644,0.000139758
1273123766644,0.000138850
1273123826644,0.000138981
1273123886644,0.000139563
1273123946644,0.000140673
1273124006644,0.000138762
1273124066644,0.000139822
1273124126644,0.000140201
1273124186644,0.000139872
1273124246644,0.000138895
1273124306644,0.000139314
1273124366644,0.000139467
1273124426644,0.000140397
1273124486644,0.000139352
1273124546644,0.000139663
1273124606644,0.000139590
1273124666644,0.000140565
1273124726644,0.000138950
1273124786644,0.000139024
1273124846644,0.000138719
1273124906644,0.000138284
1273124966644,0.000138980
1273125026644,0.000139386
1273125086644,0.000138063
1273125146644,0.000138481
1273125206644,0.000138433
1273125266644,0.000139099
1273125326644,0.000139028
1273125386644,0.000138473
1273125446644,0.000139715
1273125506644,0.000139127
1273125566644,0.000139141
1273125626653,0.000138377
1273125686653,0.000138279
1273125746653,0.000138284
1273125806653,0.000139236
1273125866653,0.000138969
1273125926653,0.000137842
1273125986653,0.000138908
1273126046653,0.000138180
1273126106653,0.000139178
1273126166653,0.000138417
1273126226653,0.000138451
1273126286653,0.000139499
1273126346653,0.000137427
1273126406653,0.000137585
1273126466653,0.000138523
1273126526653,0.000138442
1273126586653,0.000139207
1273126646653,0.000137695
1273126706653,0.000139281
1273126766653,0.000139700
1273126826653,0.000139721
1273126886653,0.000139430
1273126946653,0.000139031
1273127006653,0.000139578
1273127066653,0.000138519
1273127126653,0.000137868
1273127186653,0.000138558
1273127246653,0.000138871
1273127306653,0.000138714
1273127366653,0.000139015
1273127426653,0.000139262
1273127486653,0.000138797
1273127546653,0.000138561
1273127606653,0.000138203
1273127666653,0.000137973
1273127726653,0.000139742
1273127786653,0.000138735
1273127846653,0.000139141
1273127906653,0.000138835
1273127966653,0.000139201
1273128026653,0.000139398
1273128086653,0.000139110
1273128146653,0.000139054
1273128206653,0.000138501
1273128266653,0.000138950
1273128326653,0.000139065
1273128386653,0.000139676
1273128446653,0.000139888
1273128506653,0.000139107
1273128566653,0.000138903
1273128626653,0.000138919
1273128686653,0.000137600
1273128746653,0.000138827
1273128806653,0.000139220
1273128866653,0.000138394
1273128926653,0.000137813
1273128986653,0.000137850
1273129046653,0.000138812
1273129106653,0.000139449
1273129166653,0.000137577
1273129226662,0.000138655
1273129286662,0.000139621
1273129346662,0.000138542
1273129406662,0.000139265
1273129466662,0.000138555
1273129526662,0.000138529
1273129586662,0.000138471
1273129646662,0.000137481
1273129706662,0.000138306
1273129766662,0.000138206
1273129826662,0.000138600
1273129886662,0.000138452
1273129946661,0.000139484
1273130666662,0.000136985
1273130726662,0.000138844
1273130786662,0.000139273
1273130846662,0.000138691
1273130906662,0.000139009
1273130966662,0.000139663
1273131026662,0.000140881
1273131086662,0.000139458
1273131146662,0.000138286
1273131206662,0.000140254
1273131266662,0.000139730
1273131326661,0.000138530
1273131386661,0.000138670
1273131446661,0.000138515
1273131506662,0.000139581
1273131566662,0.000139028
1273131626662,0.000139394
1273131686662,0.000138838
1273131746662,0.000139058
1273131806662,0.000138553
1273131866662,0.000138332
1273131926662,0.000138560
1273131986662,0.000137599
1273132046662,0.000138203
1273132106662,0.000138253
1273132166662,0.000138434
1273132226662,0.000137823
1273132286662,0.000138078
1273132346662,0.000138827
1273132406662,0.000138199
1273132466662,0.000138354
1273132526662,0.000138964
1273132586662,0.000138283
1273132646661,0.000138019
1273132706661,0.000137555
1273132766661,0.000138139
1273132826671,0.000137527
1273132886670,0.000137601
1273132946670,0.000138167
1273133006670,0.000138076
1273133066670,0.000137360
1273133126670,0.000137051
1273133186670,0.000137330
1273133246670,0.000137305
1273133306670,0.000137230
1273133366670,0.000137234
1273133426670,0.000138043
1273133486671,0.000137700
1273133546670,0.000136426
1273133606670,0.000137545
1273133666670,0.000136017
1273133726670,0.000137284
1273133786671,0.000136671
1273133846671,0.000137085
1273133906671,0.000137350
1273133966671,0.000136587
1273134026671,0.000137408
1273134086671,0.000137332
1273134146671,0.000137804
1273134206670,0.000137067
1273134266670,0.000138488
1273134326670,0.000136989
1273134386670,0.000137567
1273134446670,0.000137521
1273134506670,0.000136877
1273134566670,0.000136520
1273134626670,0.000136156
1273134686670,0.000137878
1273134746670,0.000137456
1273134806671,0.000138359
1273134866671,0.000136370
1273134926670,0.000137991
1273134986670,0.000136225
1273135046670,0.000137767
1273135106670,0.000136634
1273135166671,0.000137306
1273135226671,0.000136990
1273135286671,0.000136756
1273135346671,0.000137244
1273135406671,0.000138827
1273135466671,0.000137400
1273135526671,0.000137392
1273135586670,0.000136469
1273135646670,0.000137736
1273135706670,0.000138357
1273135766670,0.000138010
1273135826670,0.000137311
1273135886670,0.000137305
1273135946670,0.000137082
1273136006670,0.000137026
1273136066670,0.000137705
1273136126670,0.000136803
1273136186671,0.000137780
1273136246670,0.000136409
1273136306670,0.000137554
1273136366670,0.000136351
1273136426679,0.000137643
1273136486679,0.000136841
1273136546679,0.000136806
1273136606679,0.000136970
1273136666679,0.000137944
1273136726679,0.000137351
1273136786679,0.000137159
1273136846679,0.000137379
1273136906679,0.000137422
1273136966680,0.000137176
1273137026680,0.000137166
1273137086680,0.000136272
1273137146679,0.000135852
1273137206679,0.000136390
1273137266679,0.000136607
1273137326679,0.000136715
1273137386679,0.000136853
1273137446679,0.000135761
1273137506679,0.000135973
1273137566679,0.000136024
1273137626679,0.000136440
1273137686679,0.000137258
1273137746679,0.000136576
1273137806679,0.000136737
1273137866679,0.000137337
1273137926679,0.000137090
1273137986679,0.000137238
1273138046679,0.000137200
1273138106679,0.000136736
1273138166679,0.000137169
1273138226679,0.000137314
1273138286680,0.000137409
1273138346680,0.000137569
1273138406680,0.000138279
1273138466679,0.000138354
1273138526679,0.000138214
1273138586679,0.000136927
1273138646679,0.000136920
1273138706679,0.000137253
1273138766679,0.000137433
1273138826679,0.000137488
1273138886679,0.000137663
1273138946679,0.000137916
1273139006679,0.000138122
1273139066679,0.000137185
1273139126679,0.000136682
1273139186679,0.000137369
1273139246679,0.000136957
1273139306679,0.000137681
1273139366679,0.000137471
1273139426679,0.000136571
1273139486679,0.000137049
1273139546679,0.000136801
1273139606679,0.000137104
1273139666680,0.000136496
1273139726680,0.000137086
1273139786680,0.000137608
1273139846679,0.000135974
1273139906679,0.000135975
1273139966679,0.000137247
1273140026688,0.000137622
1273140086688,0.000137396
1273140146688,0.000137684
1273140206688,0.000136453
1273140266688,0.000136948
1273140326688,0.000136991
1273140386688,0.000136648
1273140446688,0.000137848
1273140506688,0.000137344
1273140566688,0.000137071
1273140626688,0.000137156
1273140686688,0.000137666
1273140746688,0.000137439
1273140806688,0.000136854
1273140866688,0.000137200
1273140926688,0.000138348
1273140986688,0.000137344
1273141046688,0.000137159
1273141106688,0.000136940
1273141166688,0.000136987
1273141226688,0.000137069
1273141286688,0.000137430
1273141346688,0.000136829
1273141406688,0.000136617
1273141466688,0.000137369
1273141526688,0.000136763
1273141586688,0.000136099
1273141646688,0.000137590
1273141706688,0.000136780
1273141766688,0.000136461
1273141826688,0.000136542
1273141886688,0.000137171
1273141946688,0.000136637
1273142006688,0.000137211
1273142066688,0.000137039
1273142126688,0.000137629
1273142186688,0.000137400
1273142246688,0.000137692
1273142306688,0.000136547
1273142366688,0.000136646
1273142426688,0.000138112
1273142486688,0.000137578
1273142546688,0.000137684
1273142606688,0.000137517
1273142666688,0.000136580
1273142726688,0.000137258
1273142786688,0.000137082
1273142846688,0.000137848
1273142906688,0.000135959
1273142966688,0.000136859
1273143026688,0.000137478
1273143086688,0.000136905
1273143146688,0.000136427
1273143206688,0.000136120
1273143266688,0.000136831
1273143326688,0.000136350
1273143386688,0.000137194
1273143446688,0.000137101
1273143506688,0.000136195
1273143566688,0.000135972
1273143626697,0.000136192
1273143686697,0.000136824
1273143746697,0.000135985
1273143806697,0.000136235
1273143866697,0.000136017
1273143926697,0.000136826
1273143986697,0.000136938
1273144046697,0.000135795
1273144106697,0.000136048
1273144166697,0.000135572
1273144226697,0.000136715
1273144286697,0.000135959
1273144346697,0.000136110
1273144406697,0.000138430
1273144466697,0.000136753
1273144526697,0.000135663
1273144586697,0.000136633
1273144646697,0.000137474
1273144706697,0.000136737
1273144766697,0.000136489
1273144826697,0.000135789
1273144886697,0.000136638
1273144946697,0.000136351
1273145006697,0.000136220
1273145066697,0.000135779
1273145126697,0.000136587
1273145186697,0.000135917
1273145246697,0.000135853
1273145306697,0.000136647
1273145366697,0.000136145
1273145426697,0.000136762
1273145486697,0.000136105
1273145546697,0.000136813
1273145606697,0.000135956
1273145666697,0.000136671
1273145726697,0.000136430
1273145786697,0.000136343
1273145846697,0.000135586
1273145906697,0.000136262
1273145966697,0.000136180
1273146026697,0.000135588
1273146086697,0.000136772
1273146146697,0.000136631
1273146206697,0.000135265
1273146266697,0.000137274
1273146326697,0.000136130
1273146386697,0.000135794
1273146446697,0.000136454
1273146506697,0.000136072
1273146566697,0.000136012
1273146626697,0.000136438
1273146686697,0.000136212
1273146746697,0.000136799
1273146806697,0.000136914
1273146866697,0.000136357
1273146926697,0.000136626
1273146986697,0.000135783
1273147046697,0.000140223
1273147106697,0.000137058
1273147166697,0.000136796
1273147226706,0.000137249
1273147286706,0.000137399
1273147346706,0.000137623
1273147406706,0.000136662
1273147466706,0.000136446
1273147526706,0.000137271
1273147586706,0.000136880
1273147646706,0.000136410
1273147706706,0.000135998
1273147766706,0.000135769
1273147826706,0.000137119
1273147886706,0.000136463
1273147946706,0.000135998
1273148006706,0.000135603
1273148066706,0.000136511
1273148126706,0.000136577
1273148186706,0.000137061
1273148246706,0.000135978
1273148306706,0.000136317
1273148366706,0.000137258
1273148426706,0.000137879
1273148486706,0.000137158
1273148546706,0.000136342
1273148606706,0.000136448
1273148666706,0.000136545
1273148726706,0.000137134
1273148786706,0.000137011
1273148846706,0.000136742
1273148906706,0.000136858
1273148966706,0.000136559
1273149026706,0.000136031
1273149086706,0.000136971
1273149146706,0.000136950
1273149206706,0.000136735
1273149266706,0.000137212
1273149326706,0.000136794
1273149386706,0.000137165
1273149446706,0.000136496
1273149506706,0.000136303
1273149566706,0.000136474
1273149626706,0.000136478
1273149686706,0.000135794
1273149746706,0.000136106
1273149806706,0.000136923
1273149866706,0.000136898
1273149926706,0.000137079
1273149986706,0.000137476
1273150046706,0.000136466
1273150106706,0.000136181
1273150166706,0.000136593
1273150226706,0.000135599
1273150286706,0.000136089
1273150346706,0.000136630
1273150406706,0.000136654
1273150466706,0.000136213
1273150526706,0.000136530
1273150586706,0.000136462
1273150646706,0.000136490
1273150706706,0.000137250
1273150766706,0.000136676
1273150826715,0.000136935
1273150886715,0.000137299
1273150946715,0.000136718
1273151006715,0.000136803
1273151066715,0.000136977
1273151126715,0.000138113
1273151186715,0.000136948
1273151246715,0.000137294
1273151306715,0.000137394
1273151366715,0.000136889
1273151426715,0.000135926
1273151486715,0.000136376
1273151546715,0.000137026
1273151606715,0.000136368
1273151666715,0.000136550
1273151726715,0.000136973
1273151786715,0.000136927
1273151846715,0.000136303
1273151906715,0.000137505
1273151966715,0.000136589
1273152026715,0.000136323
1273152086715,0.000136998
1273152146715,0.000136513
1273152206715,0.000136891
1273152266715,0.000135745
1273152326715,0.000136790
1273152386715,0.000136621
1273152446715,0.000137254
1273152506715,0.000136704
1273152566715,0.000136983
1273152626715,0.000136650
1273152686715,0.000136021
1273152746715,0.000137338
1273152806715,0.000136984
1273152866715,0.000136077
1273152926715,0.000136076
1273152986715,0.000136794
1273153046715,0.000136793
1273153106715,0.000137879
1273153166715,0.000138551
1273153226715,0.000137417
1273153286715,0.000137742
1273153346715,0.000137231
1273153406715,0.000137083
1273153466715,0.000136238
1273153526715,0.000137336
1273153586715,0.000136977
1273153646715,0.000136350
1273153706715,0.000136164
1273153766715,0.000137792
1273153826715,0.000137449
1273153886715,0.000137426
1273153946715,0.000136615
1273154006715,0.000136783
1273154066715,0.000135832
1273154126715,0.000136143
1273154186715,0.000136289
1273154246715,0.000135866
1273154306715,0.000136759
1273154366715,0.000136043
1273154426723,0.000136592
1273154486723,0.000136316
1273154546723,0.000137072
1273154606723,0.000136805
1273154666723,0.000137130
1273154726723,0.000137532
1273154786723,0.000137256
1273154846723,0.000137700
1273154906723,0.000136906
1273154966723,0.000137983
1273155026723,0.000137673
1273155086723,0.000137274
1273155146723,0.000137154
1273155206723,0.000136921
1273155266723,0.000137262
1273155326723,0.000137264
1273155386723,0.000136857
1273155446723,0.000137923
1273155506723,0.000138318
1273155566723,0.000138707
1273155626723,0.000137854
1273155686723,0.000137209
1273155746723,0.000137922
1273155806723,0.000137250
1273155866723,0.000138041
1273155926723,0.000137385
1273155986723,0.000137931
1273156046723,0.000138735
1273156106723,0.000136540
1273156166723,0.000137430
1273156226723,0.000136828
1273156286723,0.000137857
1273156346723,0.000137374
1273156406723,0.000137136
1273156466723,0.000137668
1273156526723,0.000137003
1273156586723,0.000137057
1273156646723,0.000136619
1273156706723,0.000137258
1273156766723,0.000137919
1273156826723,0.000138306
1273156886723,0.000136785
1273156946723,0.000136809
1273157006723,0.000138104
1273157066723,0.000137831
1273157126723,0.000138438
1273157186723,0.000136590
1273157246723,0.000137165
1273157306723,0.000138035
1273157366723,0.000137588
1273157426723,0.000138245
1273157486723,0.000138367
1273157546723,0.000138602
1273157606723,0.000138420
1273157666723,0.000138161
1273157726723,0.000138329
1273157786723,0.000138096
1273157846723,0.000138324
1273157906723,0.000137711
1273157966723,0.000137819
1273158026732,0.000137733
1273158086732,0.000139124
1273158146732,0.000137833
1273158206732,0.000138851
1273158266732,0.000137841
1273158326732,0.000137167
1273158386732,0.000138595
1273158446732,0.000138000
1273158506732,0.000139147
1273158566732,0.000138980
1273158626732,0.000137436
1273158686732,0.000138246
1273158746732,0.000138207
1273158806732,0.000137998
1273158866732,0.000137400
1273158926732,0.000139470
1273158986732,0.000138078
1273159046732,0.000138621
1273159106732,0.000137015
1273159166732,0.000138983
1273159226732,0.000138722
1273159286732,0.000138296
1273159346732,0.000138914
1273159406732,0.000138184
1273159466732,0.000137572
1273159526732,0.000139487
1273159586732,0.000138748
1273159646732,0.000138647
1273159706732,0.000138286
1273159766732,0.000138278
1273159826732,0.000137563
1273159886732,0.000137978
1273159946732,0.000139448
1273160006732,0.000138721